This is the latest recevied weather packets stored in our database for station/object K5NWZ. If no packets are shown the sender has not sent any weather packets the latest 10 day(s).
| Time | Temp. | Humidity | Pressure | Rain* | Wind** | Luminosity | Snow |
|---|---|---|---|---|---|---|---|
| 1787961151 | 27.78° C | 40% | 1027.3 hPa | 0 mm | - | 44 W/m² | - |
| 1787960845 | 27.78° C | 39% | 1027.2 hPa | 0 mm | - | 46 W/m² | - |
| 1787960540 | 27.78° C | 38% | 1027.2 hPa | 0 mm | - | 46 W/m² | - |
| 1787960238 | 27.78° C | 38% | 1027 hPa | 0 mm | - | 49 W/m² | - |
| 1787959933 | 27.78° C | 39% | 1027.4 hPa | 0 mm | - | 51 W/m² | - |
| 1787959628 | 27.22° C | 39% | 1027 hPa | 0 mm | - | 50 W/m² | - |
| 1787959327 | 27.78° C | 41% | 1027.2 hPa | 0 mm | - | 48 W/m² | - |
| 1787959027 | 27.78° C | 40% | 1027 hPa | 0 mm | - | 51 W/m² | - |
| 1787958722 | 27.22° C | 41% | 1026.9 hPa | 0 mm | - | 49 W/m² | - |
| 1787958417 | 27.78° C | 41% | 1026.9 hPa | 0 mm | - | 54 W/m² | - |
| 1787958114 | 28.33° C | 39% | 1027.3 hPa | 0 mm | - | 71 W/m² | - |
| 1787957812 | 28.33° C | 38% | 1026.9 hPa | 0 mm | - | 78 W/m² | - |
| 1787957507 | 28.33° C | 41% | 1027 hPa | 0 mm | - | 100 W/m² | - |
| 1787957202 | 28.33° C | 38% | 1027 hPa | 0 mm | - | 105 W/m² | - |
| 1787956898 | 28.33° C | 36% | 1027 hPa | 0 mm | - | 93 W/m² | - |
| 1787956597 | 28.33° C | 36% | 1027.4 hPa | 0 mm | - | 89 W/m² | - |
| 1787956291 | 28.89° C | 36% | 1026.9 hPa | 0 mm | - | 86 W/m² | - |
| 1787955987 | 28.89° C | 40% | 1027.2 hPa | 0 mm | - | 95 W/m² | - |
| 1787955682 | 29.44° C | 41% | 1027.2 hPa | 0 mm | - | 144 W/m² | - |
| 1787955379 | 28.89° C | 32% | 1027.2 hPa | 0 mm | - | 205 W/m² | - |
| 1787955077 | 28.89° C | 37% | 1027.2 hPa | 0 mm | - | 162 W/m² | - |
| 1787954773 | 28.33° C | 30% | 1026.9 hPa | 0 mm | - | 140 W/m² | - |
| 1787954469 | 27.78° C | 34% | 1027.3 hPa | 0 mm | - | 99 W/m² | - |
| 1787954168 | 25.56° C | 37% | 1027.5 hPa | 0 mm | - | 66 W/m² | - |
| 1787953863 | 26.11° C | 45% | 1028.2 hPa | 1.78 mm | - | 48 W/m² | - |
* Rain latest hour (hover to see other rain measurements)
** Current wind speed in m/s (hover to see current wind gust speed)